Location: Charlotte
(35.2269°N, 80.8433°W)
Time: 14:47:52
(UTC-04:00)

ISS - Visible Passes

Search period start: 30 April 2016 00:00
Search period end: 10 May 2016 00:00
Orbit: 402 x 405 km, 51.6° (Epoch: 30 April)

Date Brightness Start Highest point End Pass type
(mag) Time Alt. Az. Time Alt. Az. Time Alt. Az.
05 May -0.6 05:33:44 10° SSE 05:35:12 12° SE 05:36:39 10° E visible
07 May -2.0 05:23:49 13° SSW 05:26:22 33° SE 05:29:20 10° ENE visible
08 May -1.0 04:33:34 16° SE 04:34:00 16° SE 04:36:04 10° E visible
09 May -3.4 05:15:53 25° SW 05:17:38 82° NW 05:20:54 10° NE visible
